Zurück zum Katalog

CZ-4C SEP MOTOR COVER

AktivLEO
NORAD 47697·DEBRIS·🇨🇳 China
Dieser Satellitenname wurde noch nicht durch offizielle Quellen bestätigt.

Gestartet Feb 24, 2021 von Jiuquan Satellite Launch Center

Loading…

Nächste Überflüge (nächste 24 Stunden)

TLE

AktuellSource: Space-Track

Epoche: Sep 14, 2026, 09:05 UTC

1 47697U 21014G   26257.37880345 -.00000083  00000-0  10068-4 0  9992
2 47697  63.3992   2.8182 0167896   0.0862   0.0163 13.41618733271963

Verfolge CZ-4C SEP MOTOR COVER in Echtzeit mit AllMySat

Download on the App Store